Weather History for Sedalia, MO

Change the Weather History Date:

Saturday, July 6, 2013

  Actual Average Record
Temperature  
Mean Temperature 78 °F 79 °F  
Max Temperature 91 °F 88 °F 106 °F (2012)
Min Temperature 65 °F 69 °F 44 °F (1972)
Degree Days  
Heating Degree Days 0 0  
Month to date heating degree days 0 0  
Since 1 June heating degree days 9 6  
Since 1 July heating degree days 0 0  
Cooling Degree Days 13 14  
Month to date cooling degree days 51 81  
Year to date cooling degree days 506 524  
Since 1 June cooling degree days 358 385  
Growing Degree Days 28 (Base 50)    
Moisture  
Dew Point 63 °F    
Average Humidity 63    
Maximum Humidity 87    
Minimum Humidity 38    
Precipitation  
Precipitation 0.00 in 0.12 in 3.47 in (1951)
Month to date precipitation 0.43 0.77  
Year to date precipitation 25.84 21.01  
Sea Level Pressure  
Sea Level Pressure 29.97 in    
Wind  
Wind Speed 9 mph (South)    
Max Wind Speed 15 mph    
Max Gust Speed 18 mph    
Visibility 10 miles    
Events      
T = Trace of Precipitation, MM = Missing Value Source: NWS Daily Summary

Daily Weather History Graph

Daily Weather History Graph

Search for Another Location

Airport:

Trip Planner

Search our weather history database for the weather conditions in past years. The results will help you decide how hot, cold, wet, or windy it might be!

Date:

Astronomy

Jul. 06, 2013 Rise Set
Actual Time 5:54 AM CDT 8:40 PM CDT
Civil Twilight 5:22 AM CDT 9:11 PM CDT
Nautical Twilight 4:43 AM CDT 9:51 PM CDT
Astronomical Twilight 3:58 AM CDT 10:36 PM CDT
Moon 4:40 AM CDT (7/6) 7:22 PM CDT (7/6)
Length of Visible Light 15h 48m
Length of Day
14h 45m
Waning Crescent, 2% of the Moon is Illuminated
Jul 6
Waning Crescent
Jul 8
New
Jul 15
First Quarter
Jul 22
Full
Jul 29
Last Quarter

Hourly Weather History & Observations

Time (CDT) Temp. Heat Index Dew Point Humidity Pressure Visibility Wind Dir Wind Speed Gust Speed Precip Events Conditions
12:53 AM 70.0 °F - 59.0 °F 68% 29.99 in 10.0 mi SSE 8.1 mph - N/A   Clear
1:53 AM 69.1 °F - 60.1 °F 73% 29.98 in 10.0 mi SE 6.9 mph - N/A   Clear
2:53 AM 68.0 °F - 61.0 °F 78% 29.98 in 10.0 mi SSE 8.1 mph - N/A   Clear
3:53 AM 69.1 °F - 62.1 °F 78% 29.98 in 10.0 mi SSE 8.1 mph - N/A   Clear
4:53 AM 66.9 °F - 62.1 °F 84% 29.96 in 10.0 mi South 6.9 mph - N/A   Clear
5:53 AM 66.0 °F - 62.1 °F 87% 29.98 in 10.0 mi SSE 5.8 mph - N/A   Clear
6:53 AM 68.0 °F - 63.0 °F 84% 30.00 in 10.0 mi South 6.9 mph - N/A   Clear
7:53 AM 73.0 °F - 64.0 °F 73% 30.00 in 10.0 mi South 11.5 mph - N/A   Clear
8:53 AM 77.0 °F - 64.0 °F 64% 30.00 in 10.0 mi SW 13.8 mph - N/A   Clear
9:53 AM 81.0 °F 82.7 °F 64.9 °F 58% 30.00 in 10.0 mi SW 9.2 mph - N/A   Clear
10:53 AM 84.0 °F 85.8 °F 64.9 °F 53% 30.00 in 10.0 mi SSW 13.8 mph - N/A   Clear
11:53 AM 84.9 °F 86.6 °F 64.9 °F 51% 29.99 in 10.0 mi SSW 6.9 mph - N/A   Clear
12:53 PM 86.0 °F 87.3 °F 64.0 °F 48% 29.98 in 10.0 mi SW 6.9 mph - N/A   Partly Cloudy
1:53 PM 88.0 °F 89.3 °F 64.0 °F 45% 29.96 in 10.0 mi SSW 10.4 mph - N/A   Clear
2:53 PM 89.1 °F 89.3 °F 62.1 °F 40% 29.94 in 10.0 mi South 8.1 mph - N/A   Clear
3:53 PM 90.0 °F 89.7 °F 60.1 °F 37% 29.93 in 10.0 mi South 9.2 mph - N/A   Clear
4:53 PM 90.0 °F 90.3 °F 62.1 °F 39% 29.93 in 10.0 mi SSW 9.2 mph - N/A   Clear
5:53 PM 86.0 °F 85.7 °F 60.1 °F 41% 29.93 in 10.0 mi South 9.2 mph - N/A   Clear
6:53 PM 84.9 °F 86.6 °F 64.9 °F 51% 29.93 in 10.0 mi South 8.1 mph - N/A   Clear
7:53 PM 82.0 °F 84.1 °F 66.0 °F 58% 29.93 in 10.0 mi South 5.8 mph - N/A   Clear
8:53 PM 79.0 °F - 64.9 °F 62% 29.94 in 10.0 mi South 4.6 mph - N/A   Partly Cloudy
9:53 PM 78.1 °F - 66.0 °F 66% 29.95 in 10.0 mi SE 9.2 mph - N/A   Partly Cloudy
10:53 PM 75.0 °F - 64.9 °F 71% 29.96 in 10.0 mi SSE 8.1 mph - N/A   Clear
11:53 PM 75.0 °F - 64.9 °F 71% 29.96 in 10.0 mi SSE 8.1 mph - N/A   Clear